Weather History for Punta Gorda, FL

Change the Weather History Date:

Tuesday, December 25, 2012

  Actual Average Record
Temperature  
Mean Temperature 66 °F -  
Max Temperature 79 °F 71 °F 82 °F (1997)
Min Temperature 53 °F 49 °F 39 °F (1999)
Cooling Degree Days 1    
Growing Degree Days 16 (Base 50)    
Moisture  
Dew Point 56 °F    
Average Humidity 76    
Maximum Humidity 97    
Minimum Humidity 42    
Precipitation  
Precipitation 0.00 in - - ()
Sea Level Pressure  
Sea Level Pressure 30.00 in    
Wind  
Wind Speed 4 mph (SSE)    
Max Wind Speed 14 mph    
Max Gust Speed 16 mph    
Visibility 10 miles    
Events      
Averages and records for this station are not official NWS values.
T = Trace of Precipitation, MM = Missing Value Source: NWS Daily Summary

Daily Weather History Graph

Daily Weather History Graph

Search for Another Location

Airport:

Trip Planner

Search our weather history database for the weather conditions in past years. The results will help you decide how hot, cold, wet, or windy it might be!

Date:

Astronomy

Dec. 25, 2012 Rise Set
Actual Time 7:14 AM EST 5:41 PM EST
Civil Twilight 6:49 AM EST 6:07 PM EST
Nautical Twilight 6:20 AM EST 6:36 PM EST
Astronomical Twilight 5:51 AM EST 7:04 PM EST
Moon 3:45 PM EST (12/25) 4:50 AM EST (12/25)
Length of Visible Light 11h 18m
Length of Day
10h 27m
Waxing Gibbous, 93% of the Moon is Illuminated
Dec 25
Waxing Gibbous
Dec 28
Full
Jan 4
Last Quarter
Jan 11
New
Jan 18
First Quarter

Hourly Weather History & Observations

Time (EST) Temp. Dew Point Humidity Pressure Visibility Wind Dir Wind Speed Gust Speed Precip Events Conditions
12:53 AM 54.0 °F 52.0 °F 93% 30.06 in 10.0 mi ENE 3.5 mph - N/A   Clear
1:53 AM 55.0 °F 53.1 °F 93% 30.04 in 10.0 mi Calm Calm - N/A   Clear
2:53 AM 53.1 °F 52.0 °F 96% 30.04 in 9.0 mi Calm Calm - N/A   Clear
3:53 AM 53.1 °F 52.0 °F 96% 30.02 in 9.0 mi Calm Calm - N/A   Clear
4:53 AM 53.1 °F 52.0 °F 96% 30.02 in 10.0 mi Calm Calm - N/A   Clear
5:53 AM 54.0 °F 53.1 °F 97% 30.02 in 10.0 mi Calm Calm - N/A   Clear
6:53 AM 53.1 °F 52.0 °F 96% 30.03 in 10.0 mi ESE 3.5 mph - N/A   Clear
7:53 AM 55.9 °F 54.0 °F 93% 30.04 in 10.0 mi East 3.5 mph - N/A   Clear
8:53 AM 64.0 °F 59.0 °F 84% 30.06 in 10.0 mi SE 3.5 mph - N/A   Clear
9:53 AM 71.1 °F 59.0 °F 66% 30.06 in 10.0 mi SSE 8.1 mph - N/A   Clear
10:53 AM 75.9 °F 57.0 °F 52% 30.05 in 10.0 mi SSE 10.4 mph - N/A   Clear
11:53 AM 77.0 °F 55.0 °F 47% 30.03 in 10.0 mi South 10.4 mph - N/A   Clear
12:53 PM 79.0 °F 55.0 °F 44% 29.99 in 10.0 mi South 12.7 mph 16.1 mph N/A   Clear
1:53 PM 79.0 °F 54.0 °F 42% 29.97 in 10.0 mi South 13.8 mph - N/A   Clear
2:53 PM 77.0 °F 55.9 °F 48% 29.95 in 10.0 mi SE 11.5 mph - N/A   Clear
3:53 PM 75.9 °F 57.0 °F 52% 29.95 in 10.0 mi SW 8.1 mph - N/A   Clear
4:53 PM 72.0 °F 59.0 °F 64% 29.94 in 10.0 mi SSW 5.8 mph - N/A   Clear
5:53 PM 69.1 °F 57.9 °F 68% 29.94 in 10.0 mi South 3.5 mph - N/A   Clear
6:53 PM 66.0 °F 57.9 °F 75% 29.95 in 10.0 mi SSE 3.5 mph - N/A   Clear
7:53 PM 66.0 °F 59.0 °F 78% 29.95 in 10.0 mi SSE 5.8 mph - N/A   Clear
8:53 PM 63.0 °F 57.9 °F 84% 29.96 in 10.0 mi SSE 4.6 mph - N/A   Clear
9:53 PM 64.9 °F 60.1 °F 84% 29.96 in 10.0 mi SE 8.1 mph - N/A   Clear
10:53 PM 64.9 °F 59.0 °F 81% 29.94 in 10.0 mi SE 9.2 mph - N/A   Clear
11:53 PM 62.1 °F 57.9 °F 86% 29.94 in 10.0 mi ESE 6.9 mph - N/A   Clear